| time (UTC) | temp F | wind direction | speed MPH | gust MPH | rain 1hr in | rain 24hr in | rain mn in | humidity % | barometer mb |
| 20260903020429 | 77 | 249 | 0.0 | 2.0 | 0.00 | 0.00 | 0.00 | 86 | 1015.9 |
| 20260903015923 | 78 | 249 | 0.0 | 2.0 | 0.00 | 0.00 | 0.00 | 87 | 1015.9 |
| 20260903015422 | 77 | 249 | 1.0 | 2.0 | 0.00 | 0.00 | 0.00 | 85 | 1015.9 |
| 20260903014921 | 78 | 250 | 0.0 | 2.0 | 0.00 | 0.00 | 0.00 | 85 | 1015.9 |
| 20260903014417 | 78 | 250 | 0.0 | 2.0 | 0.00 | 0.00 | 0.00 | 85 | 1015.8 |
| 20260903013918 | 78 | 250 | 0.0 | 2.0 | 0.00 | 0.00 | 0.00 | 84 | 1015.7 |
| 20260903013411 | 78 | 251 | 0.0 | 1.0 | 0.00 | 0.00 | 0.00 | 83 | 1015.7 |
| 20260903012914 | 78 | 251 | 0.0 | 2.0 | 0.00 | 0.00 | 0.00 | 83 | 1015.7 |
| 20260903012642 | 78 | 251 | 0.0 | 2.0 | 0.00 | 0.00 | 0.00 | 83 | 1015.7 |
| 20260903011911 | 78 | 253 | 0.0 | 1.0 | 0.00 | 0.00 | 0.00 | 83 | 1015.7 |
| 20260903011644 | 79 | 253 | 0.0 | 2.0 | 0.00 | 0.00 | 0.00 | 83 | 1015.6 |
| 20260903010914 | 79 | 253 | 0.0 | 2.0 | 0.00 | 0.00 | 0.00 | 82 | 1015.5 |
| 20260903010408 | 79 | 253 | 0.0 | 2.0 | 0.00 | 0.00 | 0.00 | 81 | 1015.5 |
| 20260903005907 | 79 | 253 | 0.0 | 2.0 | 0.00 | 0.00 | 0.00 | 80 | 1015.5 |
| 20260903005408 | 80 | 252 | 0.0 | 2.0 | 0.00 | 0.00 | 0.00 | 80 | 1015.5 |
| 20260903004907 | 80 | 253 | 0.0 | 1.0 | 0.00 | 0.00 | 0.00 | 80 | 1015.4 |
| 20260903004405 | 80 | 253 | 0.0 | 2.0 | 0.00 | 0.00 | 0.00 | 80 | 1015.5 |
| 20260903003905 | 80 | 253 | 0.0 | 2.0 | 0.00 | 0.00 | 0.00 | 79 | 1015.4 |
| 20260903003359 | 81 | 253 | 0.0 | 1.0 | 0.00 | 0.00 | 0.00 | 78 | 1015.4 |
| 20260903002857 | 81 | 253 | 0.0 | 1.0 | 0.00 | 0.00 | 0.00 | 77 | 1015.4 |
| 20260903002356 | 81 | 253 | 0.0 | 1.0 | 0.00 | 0.00 | 0.00 | 77 | 1015.3 |
| 20260903001854 | 82 | 253 | 0.0 | 2.0 | 0.00 | 0.00 | 0.00 | 76 | 1015.4 |
| 20260903001623 | 82 | 253 | 0.0 | 2.0 | 0.00 | 0.00 | 0.00 | 76 | 1015.4 |
| 20260903000853 | 82 | 253 | 1.0 | 3.0 | 0.00 | 0.00 | 0.00 | 76 | 1015.4 |
| 20260903000352 | 82 | 254 | 1.0 | 5.0 | 0.00 | 0.00 | 0.00 | 75 | 1015.4 |
| 20260902235857 | 83 | 254 | 2.0 | 5.0 | 0.00 | 0.00 | 0.00 | 76 | 1015.4 |
| 20260902235350 | 83 | 225 | 2.0 | 6.0 | 0.00 | 0.00 | 0.00 | 75 | 1015.3 |
| 20260902234847 | 83 | 239 | 1.0 | 6.0 | 0.00 | 0.00 | 0.00 | 75 | 1015.3 |
| 20260902234347 | 84 | 223 | 1.0 | 5.0 | 0.00 | 0.00 | 0.00 | 74 | 1015.3 |
| 20260902233844 | 84 | 229 | 2.0 | 9.0 | 0.00 | 0.00 | 0.00 | 74 | 1015.3 |
| 20260902233343 | 84 | 229 | 2.0 | 9.0 | 0.00 | 0.00 | 0.00 | 73 | 1015.2 |
| 20260902232841 | 85 | 196 | 2.0 | 6.0 | 0.00 | 0.00 | 0.00 | 73 | 1015.2 |
| 20260902232612 | 85 | 266 | 2.0 | 8.0 | 0.00 | 0.00 | 0.00 | 72 | 1015.2 |
| 20260902231846 | 85 | 250 | 2.0 | 8.0 | 0.00 | 0.00 | 0.00 | 72 | 1015.2 |
| 20260902231841 | 85 | 293 | 2.0 | 8.0 | 0.00 | 0.00 | 0.00 | 72 | 1015.2 |
| 20260902230836 | 86 | 254 | 2.0 | 8.0 | 0.00 | 0.00 | 0.00 | 71 | 1015.2 |
| 20260902230335 | 86 | 248 | 2.0 | 7.0 | 0.00 | 0.00 | 0.00 | 71 | 1015.2 |
| 20260902225834 | 86 | 221 | 3.0 | 8.0 | 0.00 | 0.00 | 0.00 | 70 | 1015.2 |
| 20260902225335 | 86 | 209 | 3.0 | 9.0 | 0.00 | 0.00 | 0.00 | 70 | 1015.2 |
| 20260902224835 | 87 | 205 | 3.0 | 9.0 | 0.00 | 0.00 | 0.00 | 67 | 1015.2 |
| 20260902224336 | 87 | 250 | 3.0 | 9.0 | 0.00 | 0.00 | 0.00 | 68 | 1015.2 |
| 20260902223833 | 87 | 271 | 2.0 | 9.0 | 0.00 | 0.00 | 0.00 | 69 | 1015.2 |
| 20260902223333 | 87 | 223 | 3.0 | 8.0 | 0.00 | 0.00 | 0.00 | 68 | 1015.3 |
| 20260902222834 | 87 | 205 | 3.0 | 8.0 | 0.00 | 0.00 | 0.00 | 69 | 1015.3 |
| 20260902222603 | 88 | 250 | 3.0 | 9.0 | 0.00 | 0.00 | 0.00 | 67 | 1015.4 |
| 20260902221829 | 88 | 231 | 3.0 | 9.0 | 0.00 | 0.00 | 0.00 | 67 | 1015.4 |
| 20260902221330 | 88 | 234 | 3.0 | 8.0 | 0.00 | 0.00 | 0.00 | 67 | 1015.4 |
| 20260902220827 | 88 | 286 | 3.0 | 11.0 | 0.00 | 0.00 | 0.00 | 66 | 1015.3 |
| 20260902220326 | 88 | 241 | 3.0 | 11.0 | 0.00 | 0.00 | 0.00 | 67 | 1015.4 |
| 20260902215828 | 88 | 212 | 3.0 | 9.0 | 0.00 | 0.00 | 0.00 | 67 | 1015.3 |
| 20260902215327 | 89 | 179 | 4.0 | 9.0 | 0.00 | 0.00 | 0.00 | 66 | 1015.3 |
| 20260902214824 | 89 | 219 | 4.0 | 9.0 | 0.00 | 0.00 | 0.00 | 65 | 1015.3 |
| 20260902214600 | 89 | 224 | 3.0 | 9.0 | 0.00 | 0.00 | 0.00 | 66 | 1015.3 |
| 20260902214322 | 89 | 169 | 3.0 | 9.0 | 0.00 | 0.00 | 0.00 | 65 | 1015.4 |
| 20260902213319 | 89 | 241 | 2.0 | 8.0 | 0.00 | 0.00 | 0.00 | 65 | 1015.4 |
| 20260902212820 | 89 | 182 | 3.0 | 7.0 | 0.00 | 0.00 | 0.00 | 65 | 1015.5 |
| 20260902212319 | 89 | 205 | 4.0 | 11.0 | 0.00 | 0.00 | 0.00 | 65 | 1015.5 |
| 20260902211819 | 89 | 225 | 4.0 | 11.0 | 0.00 | 0.00 | 0.00 | 64 | 1015.4 |
| 20260902211549 | 89 | 254 | 4.0 | 14.0 | 0.00 | 0.00 | 0.00 | 64 | 1015.5 |
| 20260902210820 | 90 | 302 | 3.0 | 14.0 | 0.00 | 0.00 | 0.00 | 64 | 1015.5 |
| 20260902210550 | 90 | 285 | 3.0 | 9.0 | 0.00 | 0.00 | 0.00 | 62 | 1015.5 |
| 20260902210047 | 91 | 244 | 3.0 | 10.0 | 0.00 | 0.00 | 0.00 | 62 | 1015.5 |
| 20260902205317 | 91 | 243 | 3.0 | 10.0 | 0.00 | 0.00 | 0.00 | 61 | 1015.6 |
| 20260902205046 | 91 | 194 | 4.0 | 8.0 | 0.00 | 0.00 | 0.00 | 59 | 1015.6 |
| 20260902204545 | 91 | 192 | 4.0 | 10.0 | 0.00 | 0.00 | 0.00 | 60 | 1015.7 |
| 20260902203817 | 91 | 184 | 3.0 | 10.0 | 0.00 | 0.00 | 0.00 | 59 | 1015.7 |
| 20260902203316 | 91 | 196 | 4.0 | 12.0 | 0.00 | 0.00 | 0.00 | 59 | 1015.8 |
| 20260902202815 | 91 | 275 | 4.0 | 12.0 | 0.00 | 0.00 | 0.00 | 59 | 1015.8 |
| 20260902202315 | 91 | 236 | 3.0 | 9.0 | 0.00 | 0.00 | 0.00 | 60 | 1015.9 |
| 20260902201817 | 92 | 218 | 4.0 | 9.0 | 0.00 | 0.00 | 0.00 | 61 | 1016.0 |
| 20260902201315 | 92 | 275 | 4.0 | 10.0 | 0.00 | 0.00 | 0.00 | 58 | 1016.0 |
| 20260902200816 | 92 | 268 | 4.0 | 13.0 | 0.00 | 0.00 | 0.00 | 58 | 1016.1 |
| 20260902200316 | 92 | 214 | 4.0 | 13.0 | 0.00 | 0.00 | 0.00 | 59 | 1016.1 |
| 20260902195815 | 93 | 252 | 4.0 | 11.0 | 0.00 | 0.00 | 0.00 | 58 | 1016.2 |
| 20260902195315 | 93 | 176 | 4.0 | 11.0 | 0.00 | 0.00 | 0.00 | 56 | 1016.3 |
| 20260902194811 | 93 | 217 | 3.0 | 9.0 | 0.00 | 0.00 | 0.00 | 55 | 1016.4 |
| 20260902194310 | 93 | 239 | 3.0 | 8.0 | 0.00 | 0.00 | 0.00 | 58 | 1016.4 |
| 20260902193811 | 93 | 203 | 4.0 | 9.0 | 0.00 | 0.00 | 0.00 | 58 | 1016.4 |
| 20260902193312 | 93 | 294 | 3.0 | 9.0 | 0.00 | 0.00 | 0.00 | 55 | 1016.5 |
| 20260902192811 | 93 | 265 | 3.0 | 9.0 | 0.00 | 0.00 | 0.00 | 58 | 1016.4 |
| 20260902192313 | 93 | 199 | 3.0 | 9.0 | 0.00 | 0.00 | 0.00 | 56 | 1016.5 |
| 20260902191807 | 93 | 234 | 3.0 | 10.0 | 0.00 | 0.00 | 0.00 | 56 | 1016.5 |
| 20260902191539 | 93 | 216 | 4.0 | 10.0 | 0.00 | 0.00 | 0.00 | 59 | 1016.5 |
| 20260902190808 | 93 | 244 | 4.0 | 10.0 | 0.00 | 0.00 | 0.00 | 56 | 1016.6 |
| 20260902190306 | 93 | 157 | 4.0 | 10.0 | 0.00 | 0.00 | 0.00 | 56 | 1016.7 |
| 20260902185807 | 93 | 213 | 4.0 | 11.0 | 0.00 | 0.00 | 0.00 | 55 | 1016.7 |
| 20260902185308 | 93 | 193 | 5.0 | 14.0 | 0.00 | 0.00 | 0.00 | 58 | 1016.7 |
| 20260902185034 | 92 | 207 | 5.0 | 14.0 | 0.00 | 0.00 | 0.00 | 56 | 1016.7 |
| 20260902184302 | 92 | 218 | 5.0 | 12.0 | 0.00 | 0.00 | 0.00 | 56 | 1016.7 |
| 20260902183807 | 91 | 199 | 4.0 | 10.0 | 0.00 | 0.00 | 0.00 | 61 | 1016.8 |
| 20260902183802 | 92 | 173 | 4.0 | 9.0 | 0.00 | 0.00 | 0.00 | 57 | 1016.8 |
| 20260902182804 | 91 | 211 | 4.0 | 10.0 | 0.00 | 0.00 | 0.00 | 61 | 1017.0 |
| 20260902182306 | 91 | 270 | 3.0 | 10.0 | 0.00 | 0.00 | 0.00 | 65 | 1017.1 |
| 20260902181802 | 91 | 247 | 3.0 | 7.0 | 0.00 | 0.00 | 0.00 | 65 | 1017.0 |
| 20260902181302 | 91 | 243 | 3.0 | 7.0 | 0.00 | 0.00 | 0.00 | 66 | 1017.0 |
| 20260902180802 | 91 | 255 | 3.0 | 12.0 | 0.00 | 0.00 | 0.00 | 61 | 1017.0 |
| 20260902180255 | 91 | 252 | 4.0 | 12.0 | 0.00 | 0.00 | 0.00 | 63 | 1017.1 |
| 20260902175756 | 91 | 278 | 4.0 | 9.0 | 0.00 | 0.00 | 0.00 | 62 | 1017.1 |
| 20260902175254 | 91 | 187 | 4.0 | 11.0 | 0.00 | 0.00 | 0.00 | 60 | 1017.1 |
| 20260902175021 | 92 | 173 | 3.0 | 11.0 | 0.00 | 0.00 | 0.00 | 62 | 1017.2 |
| 20260902174251 | 92 | 195 | 2.0 | 7.0 | 0.00 | 0.00 | 0.00 | 61 | 1017.2 |
| 20260902173749 | 91 | 275 | 4.0 | 10.0 | 0.00 | 0.00 | 0.00 | 62 | 1017.3 |
| 20260902173243 | 91 | 293 | 4.0 | 11.0 | 0.00 | 0.00 | 0.00 | 61 | 1017.4 |
| 20260902172743 | 92 | 265 | 3.0 | 11.0 | 0.00 | 0.00 | 0.00 | 59 | 1017.5 |
| 20260902172238 | 92 | 264 | 3.0 | 9.0 | 0.00 | 0.00 | 0.00 | 62 | 1017.5 |
| 20260902171736 | 92 | 252 | 4.0 | 9.0 | 0.00 | 0.00 | 0.00 | 61 | 1017.6 |
| 20260902171237 | 91 | 246 | 3.0 | 10.0 | 0.00 | 0.00 | 0.00 | 63 | 1017.6 |
| 20260902171002 | 91 | 271 | 4.0 | 13.0 | 0.00 | 0.00 | 0.00 | 63 | 1017.6 |
| 20260902170500 | 91 | 236 | 4.0 | 13.0 | 0.00 | 0.00 | 0.00 | 60 | 1017.7 |
| 20260902170343 | 91 | 245 | 3.0 | 8.0 | 0.00 | 0.00 | 0.00 | 64 | 1017.6 |
| 20260902165229 | 91 | 238 | 4.0 | 10.0 | 0.00 | 0.00 | 0.00 | 61 | 1017.7 |
| 20260902164729 | 91 | 236 | 4.0 | 10.0 | 0.00 | 0.00 | 0.00 | 63 | 1017.6 |
| 20260902164229 | 91 | 252 | 3.0 | 9.0 | 0.00 | 0.00 | 0.00 | 62 | 1017.7 |
| 20260902163955 | 90 | 211 | 3.0 | 9.0 | 0.00 | 0.00 | 0.00 | 63 | 1017.8 |
| 20260902163222 | 90 | 244 | 2.0 | 7.0 | 0.00 | 0.00 | 0.00 | 66 | 1017.8 |
| 20260902162723 | 90 | 212 | 3.0 | 8.0 | 0.00 | 0.00 | 0.00 | 64 | 1017.8 |
| 20260902162222 | 90 | 238 | 4.0 | 8.0 | 0.00 | 0.00 | 0.00 | 64 | 1017.7 |
| 20260902161722 | 90 | 262 | 4.0 | 8.0 | 0.00 | 0.00 | 0.00 | 65 | 1017.7 |
| 20260902161222 | 90 | 184 | 3.0 | 9.0 | 0.00 | 0.00 | 0.00 | 64 | 1017.7 |
| 20260902160723 | 90 | 174 | 3.0 | 9.0 | 0.00 | 0.00 | 0.00 | 64 | 1017.7 |
| 20260902160220 | 89 | 277 | 4.0 | 8.0 | 0.00 | 0.00 | 0.00 | 64 | 1017.8 |
| 20260902155718 | 89 | 260 | 4.0 | 8.0 | 0.00 | 0.00 | 0.00 | 64 | 1017.8 |
| 20260902155217 | 89 | 215 | 3.0 | 7.0 | 0.00 | 0.00 | 0.00 | 67 | 1017.8 |
| 20260902154947 | 89 | 240 | 2.0 | 7.0 | 0.00 | 0.00 | 0.00 | 67 | 1017.8 |
| 20260902154448 | 88 | 273 | 3.0 | 7.0 | 0.00 | 0.00 | 0.00 | 68 | 1017.9 |
| 20260902153718 | 88 | 225 | 4.0 | 10.0 | 0.00 | 0.00 | 0.00 | 67 | 1017.9 |
| 20260902153210 | 88 | 292 | 3.0 | 10.0 | 0.00 | 0.00 | 0.00 | 69 | 1018.1 |
| 20260902152710 | 87 | 269 | 2.0 | 7.0 | 0.00 | 0.00 | 0.00 | 69 | 1017.9 |
| 20260902152210 | 87 | 286 | 2.0 | 7.0 | 0.00 | 0.00 | 0.00 | 70 | 1017.9 |
| 20260902151710 | 87 | 268 | 2.0 | 8.0 | 0.00 | 0.00 | 0.00 | 72 | 1017.9 |
| 20260902151210 | 87 | 260 | 3.0 | 8.0 | 0.00 | 0.00 | 0.00 | 69 | 1017.9 |
| 20260902150711 | 86 | 279 | 2.0 | 6.0 | 0.00 | 0.00 | 0.00 | 71 | 1017.9 |
| 20260902150207 | 86 | 321 | 2.0 | 6.0 | 0.00 | 0.00 | 0.00 | 73 | 1017.9 |
| 20260902145704 | 85 | 238 | 3.0 | 8.0 | 0.00 | 0.00 | 0.00 | 72 | 1017.9 |
| 20260902145205 | 85 | 251 | 3.0 | 8.0 | 0.00 | 0.00 | 0.00 | 73 | 1017.9 |
| 20260902144706 | 84 | 268 | 3.0 | 8.0 | 0.00 | 0.00 | 0.00 | 76 | 1018.1 |
| 20260902144204 | 84 | 261 | 3.0 | 8.0 | 0.00 | 0.00 | 0.00 | 76 | 1018.1 |
| 20260902143706 | 83 | 211 | 4.0 | 9.0 | 0.00 | 0.00 | 0.00 | 75 | 1018.1 |
| 20260902143200 | 83 | 259 | 4.0 | 9.0 | 0.00 | 0.00 | 0.00 | 78 | 1017.9 |
| 20260902142701 | 82 | 252 | 3.0 | 9.0 | 0.00 | 0.00 | 0.00 | 79 | 1017.8 |
| 20260902142431 | 82 | 267 | 3.0 | 9.0 | 0.00 | 0.00 | 0.00 | 81 | 1017.8 |
| 20260902141700 | 81 | 237 | 3.0 | 9.0 | 0.00 | 0.00 | 0.00 | 80 | 1017.9 |
| 20260902141158 | 81 | 250 | 3.0 | 9.0 | 0.00 | 0.00 | 0.00 | 81 | 1017.8 |
| 20260902140659 | 81 | 298 | 3.0 | 9.0 | 0.00 | 0.00 | 0.00 | 84 | 1017.9 |
| 20260902140425 | 80 | 292 | 3.0 | 8.0 | 0.00 | 0.00 | 0.00 | 84 | 1017.8 |
| 20260902135652 | 80 | 265 | 3.0 | 8.0 | 0.00 | 0.00 | 0.00 | 83 | 1017.8 |
| 20260902135154 | 79 | 296 | 3.0 | 8.0 | 0.00 | 0.00 | 0.00 | 84 | 1017.8 |
| 20260902134652 | 79 | 239 | 3.0 | 7.0 | 0.00 | 0.00 | 0.00 | 84 | 1017.8 |
| 20260902134152 | 79 | 234 | 2.0 | 7.0 | 0.00 | 0.00 | 0.00 | 85 | 1017.9 |
| 20260902133653 | 78 | 248 | 3.0 | 7.0 | 0.00 | 0.00 | 0.00 | 87 | 1017.9 |
| 20260902133149 | 78 | 242 | 3.0 | 8.0 | 0.00 | 0.00 | 0.00 | 87 | 1017.9 |
| 20260902132648 | 78 | 249 | 2.0 | 8.0 | 0.00 | 0.00 | 0.00 | 88 | 1017.9 |
| 20260902132149 | 77 | 262 | 3.0 | 9.0 | 0.00 | 0.00 | 0.00 | 89 | 1017.9 |
| 20260902131648 | 77 | 276 | 3.0 | 9.0 | 0.00 | 0.00 | 0.00 | 90 | 1017.9 |
| 20260902131146 | 76 | 269 | 3.0 | 8.0 | 0.00 | 0.00 | 0.00 | 91 | 1017.9 |
| 20260902130647 | 76 | 227 | 2.0 | 8.0 | 0.00 | 0.00 | 0.00 | 91 | 1017.8 |
| 20260902130141 | 75 | 216 | 2.0 | 7.0 | 0.00 | 0.00 | 0.00 | 91 | 1017.8 |
| 20260902125639 | 75 | 232 | 2.0 | 6.0 | 0.00 | 0.00 | 0.00 | 91 | 1017.8 |
| 20260902125140 | 74 | 227 | 2.0 | 8.0 | 0.00 | 0.00 | 0.00 | 92 | 1017.8 |
| 20260902124911 | 74 | 248 | 3.0 | 8.0 | 0.00 | 0.00 | 0.00 | 92 | 1017.8 |
| 20260902124141 | 73 | 263 | 3.0 | 6.0 | 0.00 | 0.00 | 0.00 | 92 | 1017.8 |
| 20260902123643 | 73 | 240 | 2.0 | 6.0 | 0.00 | 0.00 | 0.00 | 92 | 1017.7 |
| 20260902123410 | 72 | 238 | 2.0 | 6.0 | 0.00 | 0.00 | 0.00 | 92 | 1017.7 |
| 20260902122638 | 72 | 241 | 1.0 | 4.0 | 0.00 | 0.00 | 0.00 | 92 | 1017.7 |
| 20260902122411 | 71 | 194 | 1.0 | 4.0 | 0.00 | 0.00 | 0.00 | 92 | 1017.7 |
| 20260902121637 | 71 | 239 | 1.0 | 4.0 | 0.00 | 0.00 | 0.00 | 92 | 1017.6 |
| 20260902121134 | 71 | 263 | 1.0 | 4.0 | 0.00 | 0.00 | 0.00 | 92 | 1017.6 |
| 20260902120634 | 71 | 220 | 1.0 | 4.0 | 0.00 | 0.00 | 0.00 | 92 | 1017.6 |
| 20260902120132 | 70 | 225 | 0.0 | 3.0 | 0.00 | 0.00 | 0.00 | 92 | 1017.5 |
| 20260902115900 | 70 | 225 | 1.0 | 3.0 | 0.00 | 0.00 | 0.00 | 92 | 1017.4 |
| 20260902115129 | 70 | 223 | 1.0 | 3.0 | 0.00 | 0.00 | 0.00 | 92 | 1017.4 |
| 20260902114627 | 70 | 238 | 1.0 | 2.0 | 0.00 | 0.00 | 0.00 | 92 | 1017.4 |
| 20260902114357 | 70 | 235 | 0.0 | 2.0 | 0.00 | 0.00 | 0.00 | 92 | 1017.4 |
| 20260902113857 | 70 | 235 | 0.0 | 2.0 | 0.00 | 0.00 | 0.00 | 92 | 1017.4 |
| 20260902113122 | 70 | 237 | 0.0 | 0.0 | 0.00 | 0.00 | 0.00 | 92 | 1017.3 |
| 20260902112620 | 70 | 238 | 0.0 | 0.0 | 0.00 | 0.00 | 0.00 | 92 | 1017.2 |
| 20260902112122 | 70 | 237 | 0.0 | 0.0 | 0.00 | 0.00 | 0.00 | 92 | 1017.2 |
| 20260902111621 | 70 | 237 | 0.0 | 0.0 | 0.00 | 0.00 | 0.00 | 92 | 1017.2 |
| 20260902111118 | 70 | 237 | 0.0 | 2.0 | 0.00 | 0.00 | 0.00 | 92 | 1017.2 |
| 20260902110619 | 70 | 238 | 1.0 | 3.0 | 0.00 | 0.00 | 0.00 | 92 | 1017.1 |
| 20260902110115 | 70 | 245 | 1.0 | 3.0 | 0.00 | 0.00 | 0.00 | 92 | 1017.1 |
| 20260902105616 | 70 | 248 | 0.0 | 2.0 | 0.00 | 0.00 | 0.00 | 92 | 1017.1 |
| 20260902105346 | 70 | 248 | 0.0 | 2.0 | 0.00 | 0.00 | 0.00 | 92 | 1017.2 |
| 20260902104613 | 70 | 250 | 1.0 | 3.0 | 0.00 | 0.00 | 0.00 | 92 | 1017.1 |
| 20260902104111 | 70 | 250 | 1.0 | 3.0 | 0.00 | 0.00 | 0.00 | 92 | 1017.1 |
| 20260902103611 | 70 | 254 | 1.0 | 2.0 | 0.00 | 0.00 | 0.00 | 92 | 1017.0 |
| 20260902103105 | 70 | 257 | 1.0 | 2.0 | 0.00 | 0.00 | 0.00 | 92 | 1017.0 |
| 20260902102606 | 70 | 257 | 0.0 | 2.0 | 0.00 | 0.00 | 0.00 | 92 | 1016.9 |
| 20260902102104 | 70 | 258 | 0.0 | 2.0 | 0.00 | 0.00 | 0.00 | 92 | 1016.9 |
| 20260902101603 | 70 | 259 | 0.0 | 0.0 | 0.00 | 0.00 | 0.00 | 92 | 1017.0 |
| 20260902101102 | 70 | 259 | 0.0 | 0.0 | 0.00 | 0.00 | 0.00 | 92 | 1017.0 |
| 20260902100604 | 70 | 259 | 0.0 | 0.0 | 0.00 | 0.00 | 0.00 | 92 | 1017.0 |
| 20260902100056 | 70 | 260 | 0.0 | 0.0 | 0.00 | 0.00 | 0.00 | 92 | 1017.1 |
| 20260902095555 | 70 | 260 | 0.0 | 0.0 | 0.00 | 0.00 | 0.00 | 92 | 1017.1 |
| 20260902095051 | 70 | 260 | 0.0 | 0.0 | 0.00 | 0.00 | 0.00 | 92 | 1017.1 |
| 20260902094550 | 70 | 260 | 0.0 | 0.0 | 0.00 | 0.00 | 0.00 | 92 | 1017.1 |
| 20260902094050 | 70 | 260 | 0.0 | 0.0 | 0.00 | 0.00 | 0.00 | 92 | 1017.0 |
| 20260902093546 | 70 | 260 | 0.0 | 0.0 | 0.00 | 0.00 | 0.00 | 92 | 1017.0 |
| 20260902093043 | 70 | 260 | 0.0 | 0.0 | 0.00 | 0.00 | 0.00 | 92 | 1017.0 |
| 20260902092543 | 70 | 260 | 0.0 | 0.0 | 0.00 | 0.00 | 0.00 | 92 | 1017.0 |
| 20260902092317 | 70 | 260 | 0.0 | 0.0 | 0.00 | 0.00 | 0.00 | 92 | 1016.8 |
| 20260902091544 | 70 | 261 | 0.0 | 0.0 | 0.00 | 0.00 | 0.00 | 92 | 1016.8 |
| 20260902091041 | 70 | 261 | 0.0 | 0.0 | 0.00 | 0.00 | 0.00 | 92 | 1016.9 |
| 20260902090541 | 70 | 261 | 0.0 | 0.0 | 0.00 | 0.00 | 0.00 | 92 | 1016.9 |
| 20260902090312 | 70 | 261 | 0.0 | 0.0 | 0.00 | 0.00 | 0.00 | 92 | 1016.8 |
| 20260902085539 | 70 | 261 | 0.0 | 0.0 | 0.00 | 0.00 | 0.00 | 92 | 1016.8 |
| 20260902085039 | 70 | 261 | 0.0 | 1.0 | 0.00 | 0.00 | 0.00 | 92 | 1016.9 |
| 20260902084540 | 70 | 261 | 0.0 | 1.0 | 0.00 | 0.00 | 0.00 | 92 | 1016.9 |
| 20260902084037 | 70 | 261 | 0.0 | 1.0 | 0.00 | 0.00 | 0.00 | 91 | 1016.7 |
| 20260902083538 | 70 | 260 | 0.0 | 1.0 | 0.00 | 0.00 | 0.00 | 91 | 1016.7 |
| 20260902083036 | 70 | 260 | 0.0 | 1.0 | 0.00 | 0.00 | 0.00 | 91 | 1016.7 |
| 20260902082811 | 71 | 260 | 0.0 | 0.0 | 0.00 | 0.00 | 0.00 | 91 | 1016.6 |
| 20260902082535 | 71 | 260 | 0.0 | 0.0 | 0.00 | 0.00 | 0.00 | 91 | 1016.6 |
| 20260902081536 | 71 | 260 | 0.0 | 1.0 | 0.00 | 0.00 | 0.00 | 91 | 1016.6 |
| 20260902081037 | 71 | 260 | 0.0 | 1.0 | 0.00 | 0.00 | 0.00 | 91 | 1016.5 |
| 20260902080536 | 71 | 260 | 0.0 | 0.0 | 0.00 | 0.00 | 0.00 | 91 | 1016.6 |
| 20260902080036 | 71 | 260 | 0.0 | 0.0 | 0.00 | 0.00 | 0.00 | 91 | 1016.5 |
| 20260902075807 | 72 | 260 | 0.0 | 0.0 | 0.00 | 0.00 | 0.00 | 91 | 1016.5 |
| 20260902075307 | 72 | 260 | 0.0 | 0.0 | 0.00 | 0.00 | 0.00 | 91 | 1016.5 |
| 20260902074805 | 72 | 260 | 0.0 | 0.0 | 0.00 | 0.00 | 0.00 | 91 | 1016.5 |
| 20260902074031 | 72 | 260 | 0.0 | 1.0 | 0.00 | 0.00 | 0.00 | 91 | 1016.4 |
| 20260902073533 | 72 | 0 | 0.0 | 1.0 | 0.00 | 0.00 | 0.00 | 91 | 1016.5 |
| 20260902073032 | 72 | 261 | 0.0 | 0.0 | 0.00 | 0.00 | 0.00 | 91 | 1016.5 |
| 20260902072534 | 73 | 0 | 0.0 | 0.0 | 0.00 | 0.00 | 0.00 | 91 | 1016.6 |
| 20260902072309 | 73 | 0 | 0.0 | 0.0 | 0.00 | 0.00 | 0.00 | 91 | 1016.6 |
| 20260902071528 | 73 | 0 | 0.0 | 0.0 | 0.00 | 0.00 | 0.00 | 91 | 1016.5 |
| 20260902071027 | 73 | 0 | 0.0 | 0.0 | 0.00 | 0.00 | 0.00 | 91 | 1016.5 |
| 20260902070530 | 73 | 261 | 0.0 | 0.0 | 0.00 | 0.00 | 0.00 | 91 | 1016.5 |
| 20260902070030 | 73 | 261 | 0.0 | 0.0 | 0.00 | 0.00 | 0.00 | 91 | 1016.5 |
| 20260902065525 | 73 | 261 | 0.0 | 1.0 | 0.00 | 0.00 | 0.00 | 91 | 1016.6 |
| 20260902065026 | 73 | 261 | 0.0 | 1.0 | 0.00 | 0.00 | 0.00 | 91 | 1016.5 |
| 20260902064519 | 73 | 261 | 0.0 | 1.0 | 0.00 | 0.00 | 0.00 | 91 | 1016.5 |
| 20260902064019 | 73 | 261 | 0.0 | 1.0 | 0.00 | 0.00 | 0.00 | 91 | 1016.5 |
| 20260902063518 | 73 | 261 | 0.0 | 1.0 | 0.00 | 0.00 | 0.00 | 91 | 1016.5 |
| 20260902063017 | 73 | 261 | 0.0 | 3.0 | 0.00 | 0.00 | 0.00 | 91 | 1016.5 |
| 20260902063013 | 73 | 261 | 0.0 | 1.0 | 0.00 | 0.00 | 0.00 | 91 | 1016.5 |
| 20260902062011 | 73 | 261 | 1.0 | 3.0 | 0.00 | 0.00 | 0.00 | 91 | 1016.6 |
| 20260902061742 | 73 | 260 | 1.0 | 2.0 | 0.00 | 0.00 | 0.00 | 91 | 1016.5 |
| 20260902061014 | 73 | 258 | 1.0 | 3.0 | 0.00 | 0.00 | 0.00 | 91 | 1016.5 |
| 20260902060511 | 73 | 258 | 1.0 | 4.0 | 0.00 | 0.00 | 0.00 | 91 | 1016.4 |
| 20260902060008 | 73 | 214 | 1.0 | 4.0 | 0.00 | 0.00 | 0.00 | 91 | 1016.4 |
| 20260902055508 | 73 | 240 | 1.0 | 4.0 | 0.00 | 0.00 | 0.00 | 91 | 1016.5 |
| 20260902055005 | 73 | 254 | 1.0 | 4.0 | 0.00 | 0.00 | 0.00 | 91 | 1016.5 |
| 20260902054505 | 73 | 278 | 1.0 | 6.0 | 0.00 | 0.00 | 0.00 | 91 | 1016.4 |
| 20260902054006 | 73 | 262 | 1.0 | 6.0 | 0.00 | 0.00 | 0.00 | 91 | 1016.4 |
| 20260902053505 | 73 | 196 | 1.0 | 6.0 | 0.00 | 0.00 | 0.00 | 91 | 1016.4 |
| 20260902053007 | 73 | 244 | 0.0 | 2.0 | 0.00 | 0.00 | 0.00 | 91 | 1016.4 |
| 20260902052505 | 73 | 246 | 0.0 | 2.0 | 0.00 | 0.00 | 0.00 | 91 | 1016.3 |
| 20260902052237 | 73 | 248 | 0.0 | 0.0 | 0.00 | 0.00 | 0.00 | 91 | 1016.4 |
| 20260902051506 | 73 | 225 | 0.0 | 0.0 | 0.00 | 0.00 | 0.00 | 91 | 1016.4 |
| 20260902051001 | 73 | 222 | 0.0 | 0.0 | 0.00 | 0.00 | 0.00 | 91 | 1016.4 |
| 20260902050502 | 73 | 219 | 0.0 | 0.0 | 0.00 | 0.00 | 0.00 | 91 | 1016.4 |
| 20260902050004 | 74 | 220 | 0.0 | 0.0 | 0.00 | 0.00 | 0.00 | 90 | 1016.5 |
| 20260902045501 | 74 | 220 | 0.0 | 0.0 | 0.00 | 0.00 | 0.00 | 90 | 1016.5 |
| 20260902044959 | 74 | 219 | 0.0 | 0.0 | 0.00 | 0.00 | 0.00 | 90 | 1016.5 |
| 20260902044458 | 74 | 218 | 0.0 | 0.0 | 0.00 | 0.00 | 0.00 | 90 | 1016.5 |
| 20260902043954 | 74 | 215 | 0.0 | 0.0 | 0.00 | 0.00 | 0.00 | 90 | 1016.6 |
| 20260902043451 | 74 | 215 | 0.0 | 0.0 | 0.00 | 0.00 | 0.00 | 90 | 1016.6 |
| 20260902043221 | 74 | 215 | 0.0 | 0.0 | 0.00 | 0.00 | 0.00 | 90 | 1016.6 |
| 20260902042448 | 74 | 227 | 0.0 | 0.0 | 0.00 | 0.00 | 0.00 | 90 | 1016.6 |
| 20260902041948 | 74 | 227 | 0.0 | 0.0 | 0.00 | 0.00 | 0.00 | 90 | 1016.6 |
| 20260902041446 | 74 | 227 | 0.0 | 0.0 | 0.00 | 0.00 | 0.00 | 90 | 1016.6 |
| 20260902040943 | 74 | 227 | 0.0 | 0.0 | 0.00 | 0.00 | 0.00 | 90 | 1016.7 |
| 20260902040714 | 74 | 227 | 0.0 | 0.0 | 0.00 | 0.00 | 0.00 | 89 | 1016.7 |
| 20260902035942 | 74 | 227 | 0.0 | 0.0 | 0.00 | 0.00 | 0.00 | 89 | 1016.7 |
| 20260902035441 | 75 | 227 | 0.0 | 0.0 | 0.00 | 0.00 | 0.00 | 89 | 1016.7 |
| 20260902034940 | 75 | 227 | 0.0 | 0.0 | 0.00 | 0.00 | 0.00 | 89 | 1016.6 |
| 20260902034433 | 75 | 227 | 0.0 | 0.0 | 0.00 | 0.00 | 0.00 | 89 | 1016.7 |
| 20260902033933 | 75 | 227 | 0.0 | 0.0 | 0.00 | 0.00 | 0.00 | 89 | 1016.6 |
| 20260902033430 | 75 | 227 | 0.0 | 0.0 | 0.00 | 0.00 | 0.00 | 89 | 1016.6 |
| 20260902032928 | 75 | 227 | 0.0 | 0.0 | 0.00 | 0.00 | 0.00 | 89 | 1016.6 |
| 20260902032429 | 75 | 227 | 0.0 | 0.0 | 0.00 | 0.00 | 0.00 | 89 | 1016.6 |
| 20260902031926 | 75 | 227 | 0.0 | 0.0 | 0.00 | 0.00 | 0.00 | 89 | 1016.6 |
| 20260902031423 | 75 | 227 | 0.0 | 0.0 | 0.00 | 0.00 | 0.00 | 89 | 1016.6 |
| 20260902030924 | 75 | 227 | 0.0 | 0.0 | 0.00 | 0.00 | 0.00 | 89 | 1016.6 |
| 20260902030423 | 75 | 227 | 0.0 | 0.0 | 0.00 | 0.00 | 0.00 | 89 | 1016.6 |
| 20260902025920 | 75 | 227 | 0.0 | 0.0 | 0.00 | 0.00 | 0.00 | 88 | 1016.6 |
| 20260902025422 | 76 | 227 | 0.0 | 0.0 | 0.00 | 0.00 | 0.00 | 88 | 1016.6 |
| 20260902024920 | 76 | 227 | 0.0 | 0.0 | 0.00 | 0.00 | 0.00 | 89 | 1016.6 |
| 20260902024419 | 76 | 227 | 0.0 | 0.0 | 0.00 | 0.00 | 0.00 | 88 | 1016.6 |
| 20260902023917 | 76 | 227 | 0.0 | 0.0 | 0.00 | 0.00 | 0.00 | 88 | 1016.6 |
| 20260902023418 | 76 | 227 | 0.0 | 0.0 | 0.00 | 0.00 | 0.00 | 88 | 1016.6 |
| 20260902022915 | 76 | 227 | 0.0 | 0.0 | 0.00 | 0.00 | 0.00 | 88 | 1016.6 |
| 20260902022416 | 76 | 227 | 0.0 | 0.0 | 0.00 | 0.00 | 0.00 | 88 | 1016.6 |
| 20260902021913 | 76 | 227 | 0.0 | 0.0 | 0.00 | 0.00 | 0.00 | 88 | 1016.5 |
| 20260902021411 | 76 | 227 | 0.0 | 0.0 | 0.00 | 0.00 | 0.00 | 88 | 1016.5 |
| 20260902020909 | 77 | 227 | 0.0 | 0.0 | 0.00 | 0.00 | 0.00 | 88 | 1016.5 |